Weather in Perm

Russia / Perm Krai     58˚00′37″N   56˚13′45″E
temp.,
°C
wind,
m/s
gust,
m/s
humid.,
%
clouds,
%
prec.,
mm/h
press.,
hPa
HPBL,
m
30 november, mon
mon3023:00−12˚ese22930 0.0 105124
02:00−12˚se22920 0.0 105222
05:00−12˚se22920 0.0 105222
08:00−12˚ese22930 0.0 105235
11:00−11˚se22930 0.0 105269
14:00−7˚sse23890 0.0 1052128
17:00−10˚sse12950 0.0 105221
20:00−10˚s129679 0.0 105221
1 december, tue
tue123:00−8˚se239490 0.1 1051111
02:00−7˚sse2395100 0.1 1050113
05:00−9˚se239583 0.1 105160
08:00−10˚se239539 0.0 105046
11:00−10˚sse229525 0.0 105062
14:00−7˚sse12900 0.0 1049115
17:00−9˚sse22940 0.0 104821
20:00−10˚sse12940 0.0 104821
2 december, wed
wed223:00−10˚sse12930 0.0 104721
02:00−11˚sse12910 0.0 104621
05:00−11˚sse12890 0.0 104621
08:00−12˚s12880 0.0 104521
11:00−11˚ssw11880 0.0 104422
14:00−9˚sw13850 0.0 1044178
17:00−11˚ssw12920 0.0 104421
20:00−12˚sw12920 0.0 104320
3 december, thu
thu323:00−13˚wsw12920 0.0 104420
02:00−14˚sw129218 0.0 104420
05:00−14˚wsw129110 0.0 104420
08:00−14˚wsw12910 0.0 104420
11:00−13˚w11890 0.0 104427
14:00−11˚w12820 0.0 1044175
17:00−13˚w11900 0.0 104320
20:00−13˚wnw11910 0.0 104420
4 december, fri
fri423:00−14˚wnw11920 0.0 104320
02:00−14˚w11920 0.0 104420
05:00−14˚wnw11930 0.0 104320
08:00−14˚wnw11920 0.0 104320
11:00−13˚wnw11910 0.0 104426
14:00−11˚wnw12840 0.0 1044158
17:00−13˚wnw12910 0.0 104420
20:00−14˚wnw11930 0.0 104420